SCP
0 0 0 0 0 0 0 0 0 0 0 0 0 0 0 0 0 0 0 0 0 0 1 1 1 1 1 1 0 0 0 0 1 1 1 1 1 1 1 1 1 1 1
0 0 0 0 0 0 0 0 0 0 0 0 0 0 0 0 0 0 0 0 0 0 0 0 0 0 0 0 0 0 0 0 0 0 0 0 0 1 1 1 1 1 1
0 0 0 0 0 0 0 0 0 0 0 0 0 0 0 0 0 0 0 0 0 0 0 0 0 0 0 0 0 0 0 0 0 0 0 0 0 0 1 1 1 1 1
0 0 0 0 0 0 0 0 0 0 0 0 0 0 0 0 0 0 0 0 0 0 0 0 0 0 0 0 0 0 0 0 0 0 0 0 0 0 0 0 1 1 1
0 0 0 0 0 0 0 0 0 0 0 0 0 0 0 0 0 0 0 0 0 0 0 0 0 0 0 0 0 0 0 0 1 0 0 0 0 0 0 0 1 1 1
0 0 0 0 0 0 0 0 0 0 0 0 0 0 0 0 0 0 0 0 0 0 0 0 0 0 0 0 0 0 0 1 1 0 0 0 0 0 0 0 0 1 1
0 0 0 0 0 0 0 0 0 0 0 0 0 0 0 0 0 0 0 0 0 0 0 0 0 0 0 0 0 0 0 1 1 0 0 0 0 0 0 0 0 1 1
0 0 0 0 0 0 0 0 0 0 0 0 0 0 0 0 0 0 0 0 0 0 0 0 0 0 0 0 0 0 0 1 1 0 0 0 0 0 0 0 1 1 1
0 0 0 0 0 0 0 0 0 0 0 0 0 0 0 0 0 0 0 0 0 0 0 0 0 0 0 0 0 0 0 0 0 0 0 0 0 0 0 1 1 1 1
0 0 0 0 0 0 0 0 0 0 0 0 0 0 0 0 0 0 0 0 0 0 0 0 0 0 0 0 0 0 0 0 0 0 0 0 0 1 1 1 1 1 1
0 0 0 0 0 0 0 0 0 0 0 0 0 0 0 0 0 0 0 0 0 0 0 0 0 0 0 0 0 0 0 0 0 0 1 1 1 1 1 1 1 1 1
0 0 0 0 0 0 0 0 0 0 0 0 0 0 0 0 0 0 0 0 0 0 0 0 0 0 0 0 0 0 0 0 0 0 1 1 1 1 1 1 1 1 1
0 0 0 0 0 0 0 0 0 0 0 0 0 0 0 0 0 0 0 0 0 0 0 0 0 0 0 0 0 0 0 0 0 0 0 0 1 1 1 1 1 1 1
0 0 0 0 0 0 0 0 0 0 0 0 0 0 0 0 0 0 0 0 0 0 0 0 0 0 0 0 0 0 0 0 0 0 0 0 0 0 0 0 0 0 0
0 0 0 0 0 0 0 0 0 0 0 0 0 0 0 0 0 0 0 0 0 0 0 0 0 0 0 0 0 0 0 0 0 0 0 0 0 0 0 0 0 0 0
0 0 0 0 0 0 0 0 0 0 0 0 0 0 0 0 0 0 0 0 0 0 0 0 0 0 0 0 0 0 0 0 0 0 0 0 0 0 0 0 0 0 0
0 0 0 0 0 0 0 0 0 0 0 0 0 0 0 0 0 0 0 0 0 0 0 0 0 0 0 0 0 0 0 0 0 0 0 0 0 0 0 0 0 0 0
0 0 0 0 0 0 0 0 0 0 0 0 0 0 0 0 0 0 0 0 0 0 0 0 0 0 0 0 0 0 0 0 0 0 0 0 0 0 0 0 0 0 0
0 0 0 0 0 0 0 0 0 0 0 0 0 0 0 0 0 0 0 0 0 0 0 0 0 0 0 0 0 0 0 0 0 0 0 0 0 0 0 0 0 0 0
0 0 0 0 0 0 0 0 0 0 0 0 0 0 0 0 0 0 0 0 0 0 0 0 0 0 0 0 0 0 0 0 0 0 0 0 0 0 0 0 0 0 0
0 0 0 0 0 0 0 0 0 0 0 0 0 0 0 0 0 0 0 0 0 0 0 0 0 0 0 0 0 0 0 0 0 0 0 0 0 0 0 0 0 0 0
0 0 0 0 0 0 0 0 0 0 0 0 0 0 0 0 0 0 0 0 0 0 0 0 0 0 0 0 0 0 0 0 0 0 0 0 0 0 0 0 0 0 0
0 0 0 0 0 0 0 0 0 0 0 0 0 0 0 0 0 0 0 0 0 0 0 0 0 0 0 0 0 0 0 0 0 0 0 0 0 0 0 0 0 0 0
0 0 0 0 0 0 0 0 0 0 0 0 0 0 0 0 0 0 0 0 0 0 0 0 0 0 0 0 0 0 0 0 0 0 0 0 0 0 0 0 0 0 0
0 0 0 0 0 0 0 0 0 0 0 0 0 0 0 0 0 0 0 0 0 0 0 0 0 0 0 0 0 0 0 0 0 0 0 0 0 0 0 0 0 0 0
0 0 0 0 0 0 0 0 0 0 0 0 0 0 0 0 0 0 0 0 0 0 0 0 0 0 0 0 0 0 0 0 0 0 0 0 0 0 0 0 0 0 0
Wind_Speed
2 2 2 2 2 2 2 3 3 4 4 4 4 4 4 4 4 4 4 9 10 10 10 11 10 10 10 11 11 11 11 11 10 10 10 9 9 8 8 7 7 6 7
2 2 2 2 2 2 2 2 3 3 3 3 4 4 3 3 3 4 4 6 10 10 10 11 11 11 11 11 11 11 10 10 10 9 9 8 8 8 8 7 8 7 7
2 2 2 2 2 2 2 3 3 3 3 3 4 3 3 3 3 4 4 4 5 8 10 10 11 11 11 11 11 11 11 10 10 9 9 8 7 7 7 7 6 7 7
3 2 2 2 1 2 2 3 3 3 3 3 3 2 2 3 4 3 4 4 4 4 7 10 10 11 10 10 10 10 11 11 11 10 10 9 8 6 6 7 6 6 6
3 3 2 2 2 2 2 2 2 2 2 3 2 3 3 3 3 3 3 4 4 4 4 7 10 10 10 10 10 10 10 10 10 11 11 10 8 7 6 6 6 6 6
2 3 2 2 2 3 2 2 3 3 2 2 3 4 3 3 3 3 3 3 3 4 4 5 5 6 10 10 10 10 10 10 10 11 11 11 10 8 7 6 6 6 6
2 2 2 2 2 2 2 3 3 3 2 2 3 3 3 3 3 3 2 3 3 3 4 4 3 3 4 9 10 10 10 10 10 10 10 10 10 9 8 6 6 5 5
2 2 2 2 2 3 3 2 2 2 2 2 2 2 2 3 3 3 2 2 3 3 3 4 4 4 4 3 7 10 10 9 9 10 10 10 9 9 8 7 7 5 5
1 2 2 2 2 2 2 2 2 3 2 1 1 3 3 1 2 3 2 2 3 2 2 2 3 4 4 3 4 7 9 9 9 9 9 9 9 9 8 7 7 6 6
1 1 2 2 2 2 2 2 2 2 3 2 1 1 2 3 2 1 3 2 3 3 3 3 3 3 3 3 4 6 8 8 8 9 9 9 9 9 8 7 7 7 6
1 1 1 2 2 2 2 2 2 2 2 2 2 1 2 2 2 2 1 3 3 2 2 2 2 3 3 3 3 5 7 7 8 9 9 9 9 8 8 8 8 7 6
1 1 1 1 2 2 2 2 2 3 2 2 2 2 2 2 2 2 2 1 2 3 2 2 2 2 2 3 3 6 6 6 7 8 8 9 9 8 8 8 8 7 7
0 1 1 1 1 1 2 2 3 2 2 2 2 1 1 1 2 2 2 1 0 2 2 2 2 2 2 2 3 6 6 6 7 7 7 8 8 8 8 8 8 8 7
2 1 2 2 2 2 2 3 2 2 2 2 2 2 1 0 1 2 3 3 1 1 2 3 2 2 2 2 3 5 4 6 6 6 7 7 8 7 7 7 8 7 7
1 2 2 2 2 2 2 3 2 2 2 2 1 2 1 0 1 1 2 3 3 1 2 2 2 2 2 2 3 3 3 5 6 6 6 6 6 7 7 7 7 7 7
1 2 2 2 2 2 2 3 2 1 2 1 1 2 1 0 1 1 1 1 2 3 2 2 2 2 2 2 3 3 3 6 6 5 5 5 5 5 6 6 6 6 6
2 2 2 2 2 2 2 3 2 2 2 1 1 2 1 1 1 1 1 1 1 2 2 2 1 1 2 2 3 3 2 3 3 5 5 5 5 5 5 5 5 5 5
2 2 2 3 2 2 2 3 3 2 2 2 1 1 1 1 1 1 1 1 1 2 2 2 1 1 1 2 2 2 3 3 2 5 5 5 5 5 5 5 5 5 5
2 2 2 2 2 2 2 2 3 2 2 2 2 2 1 2 1 1 1 1 1 1 1 2 1 1 1 1 2 2 2 2 3 3 4 5 6 5 5 4 4 4 4
2 2 2 2 2 2 2 2 3 2 2 1 1 2 2 2 3 2 2 2 1 1 1 1 1 1 1 1 1 1 2 2 2 3 4 4 5 6 5 5 5 5 4
2 2 2 2 2 2 2 3 3 3 2 1 1 1 1 2 2 2 2 2 2 2 1 1 1 0 1 1 1 1 1 2 2 2 2 2 2 2 3 4 4 5 5
2 2 2 2 2 1 3 4 4 3 2 2 1 0 1 1 1 1 2 2 4 3 3 2 1 1 3 2 1 1 1 1 2 2 1 2 1 2 2 2 4 5 5
2 2 2 2 2 2 3 4 5 3 2 2 2 1 0 0 1 0 0 1 1 2 4 3 3 3 3 3 2 2 2 2 2 2 0 2 2 2 2 3 5 5 5
3 2 2 2 2 2 3 3 4 3 2 1 2 2 2 1 1 1 1 1 1 1 2 2 3 3 3 2 3 3 3 1 1 1 0 1 2 2 3 3 5 4 5
3 3 2 3 2 2 3 4 4 3 2 1 1 1 1 2 2 1 2 1 1 2 2 1 1 1 2 1 0 1 1 0 2 2 0 1 2 2 3 3 3 4 5
3 3 2 2 3 3 3 4 5 3 2 1 0 1 1 1 2 1 2 2 2 2 0 1 2 3 2 1 1 1 2 1 1 2 1 1 1 1 3 2 1 3 3
Wind_Direction
74 60 58 57 53 57 68 70 71 70 67 62 64 69 60 48 40 35 23 36 46 52 56 56 55 53 53 51 50 50 50 48 48 46 45 45 45 48 51 51 51 52 53
104 89 74 67 64 66 72 79 82 79 70 66 62 60 58 50 43 42 32 25 34 45 50 52 52 54 54 51 49 48 49 47 45 44 43 43 45 49 51 52 52 53 52
117 110 95 82 74 76 79 77 72 68 74 70 58 50 54 51 47 41 34 26 21 34 44 46 47 49 49 48 48 47 46 43 42 41 39 38 41 47 51 55 56 54 52
125 118 109 99 95 94 91 89 79 72 66 67 59 41 47 49 47 43 37 33 25 22 27 39 43 44 44 46 47 46 43 41 38 35 34 35 37 42 50 51 53 52 51
124 124 118 109 105 95 87 97 76 84 85 76 74 52 44 45 39 43 38 35 31 27 20 25 31 35 38 40 42 41 40 39 35 35 35 36 38 42 51 49 48 50 51
125 122 117 110 109 102 89 89 89 73 84 85 77 60 41 40 42 39 29 32 31 29 27 23 16 16 27 30 32 33 35 34 34 35 35 37 39 42 41 42 44 47 49
119 123 121 114 115 116 121 117 105 86 66 73 80 47 23 32 43 37 31 35 28 22 27 24 20 18 8 15 19 23 26 29 31 33 35 36 38 38 37 35 38 41 46
115 129 132 130 126 121 118 117 113 104 70 58 107 92 25 358 3 23 25 37 25 20 26 25 21 18 10 3 4 16 20 22 25 29 32 33 35 36 36 36 37 41 46
95 109 131 131 134 136 144 144 133 131 129 58 73 130 135 212 317 346 8 23 16 20 7 8 17 10 8 3 352 2 15 16 19 24 28 30 31 32 34 36 38 43 50
81 107 129 130 133 134 143 157 138 141 138 136 77 67 123 150 140 338 341 358 8 17 4 5 2 0 1 356 357 8 15 16 17 21 25 29 30 31 34 38 42 42 45
63 100 133 132 131 131 139 136 128 134 136 145 145 130 99 75 104 136 298 329 351 350 354 354 350 350 349 347 344 5 14 19 21 22 22 23 24 27 32 37 41 41 41
29 70 125 131 134 133 145 144 135 128 121 119 123 132 145 147 164 148 171 276 319 317 337 350 350 337 338 341 348 9 17 20 21 20 19 17 20 25 31 34 37 39 40
208 224 141 137 135 146 139 126 119 120 119 118 128 133 140 158 154 147 145 174 313 316 332 336 333 336 339 346 340 356 10 17 17 19 19 20 25 31 35 34 33 34 38
202 191 156 146 142 132 122 116 110 123 118 124 125 127 120 144 142 148 153 146 113 344 347 312 324 341 340 341 347 351 358 14 17 18 19 22 27 29 31 30 30 30 33
175 158 146 138 131 121 120 117 107 119 120 128 136 131 117 115 132 144 140 148 149 161 297 296 313 331 334 339 352 355 347 3 8 9 14 16 19 22 25 25 26 26 26
149 133 133 136 132 126 124 120 112 112 115 124 129 121 112 95 106 117 135 135 142 158 206 268 274 307 332 358 7 357 345 353 358 4 8 9 11 14 18 20 20 21 20
143 139 150 146 144 144 138 130 136 132 138 133 121 132 154 126 117 118 117 117 125 135 180 275 293 325 350 347 344 349 349 348 347 0 3 7 9 13 16 18 20 19 17
149 154 140 134 143 148 146 153 158 153 158 161 171 150 181 125 127 125 130 145 161 166 171 227 296 323 317 321 326 338 346 350 341 2 8 9 10 11 15 19 21 20 15
142 134 127 143 156 153 150 161 159 155 163 174 171 168 188 144 151 157 150 158 173 152 157 174 260 295 309 329 340 338 343 339 338 354 5 11 12 13 16 18 19 16 10
148 149 153 160 158 152 150 152 144 141 145 159 173 181 187 175 189 182 172 184 152 133 132 146 253 303 304 310 350 323 330 336 333 347 356 5 11 13 11 10 10 8 3
155 156 146 143 145 150 156 151 147 146 150 148 163 212 214 197 205 193 180 179 154 147 144 159 230 320 308 311 281 270 294 311 316 330 331 343 349 352 352 347 350 354 354
146 139 150 155 163 176 164 155 148 151 154 158 174 251 274 245 250 237 229 192 168 169 180 180 206 228 257 250 246 254 265 327 309 318 335 323 348 322 318 327 342 344 345
153 151 165 163 182 203 178 160 154 147 155 174 187 195 282 4 17 125 7 352 237 218 192 181 200 230 238 233 212 232 230 226 250 284 315 303 322 311 317 341 346 351 356
165 169 175 184 190 214 190 167 156 141 145 181 199 197 190 238 231 156 128 60 343 308 253 216 213 234 238 224 207 217 223 241 276 321 14 285 306 302 315 322 347 359 6
176 179 176 182 188 226 203 176 148 143 146 204 232 209 196 220 239 165 139 167 299 316 344 337 303 316 334 349 131 99 73 60 297 293 306 253 293 303 302 307 341 0 3
182 177 178 189 189 211 207 176 156 147 153 183 289 281 251 248 266 208 170 175 221 265 320 3 359 351 349 353 12 173 183 193 250 283 275 242 285 324 312 299 324 335 338